Weather History for Peoria, IL

Change the Weather History Date:

Sunday, October 14, 2012

  Actual Average Record
Temperature  
Mean Temperature 59 °F 55 °F  
Max Temperature 71 °F 65 °F 89 °F (1897)
Min Temperature 46 °F 44 °F 22 °F (1909)
Degree Days  
Heating Degree Days 6 11  
Month to date heating degree days 180 126  
Since 1 July heating degree days 284 216  
Cooling Degree Days 0 0  
Month to date cooling degree days 0 12  
Year to date cooling degree days 1368 1036  
Growing Degree Days 10 (Base 50)    
Moisture  
Dew Point 58 °F    
Average Humidity 84    
Maximum Humidity 100    
Minimum Humidity 68    
Precipitation  
Precipitation 0.73 in 0.08 in 1.93 in (1975)
Month to date precipitation 2.13 1.22  
Year to date precipitation 22.33 29.32  
Snow  
Snow 0.00 in 0.00 in 0.00 in ()
Month to date snowfall 0.0 0.0  
Since 1 July snowfall 0.0 0.0  
Since 1 September snowfall 0.0 0.0  
Snow Depth 0.00 in    
Sea Level Pressure  
Sea Level Pressure 29.65 in    
Wind  
Wind Speed 16 mph (SW)    
Max Wind Speed 31 mph    
Max Gust Speed 41 mph    
Visibility 8 miles    
Events Rain , Thunderstorm    
T = Trace of Precipitation, MM = Missing Value Source: NWS Daily Summary

Daily Weather History Graph

Daily Weather History Graph

Search for Another Location

Airport:

Trip Planner

Search our weather history database for the weather conditions in past years. The results will help you decide how hot, cold, wet, or windy it might be!

Date:

Astronomy

Oct. 14, 2012 Rise Set
Actual Time 7:09 AM CDT 6:19 PM CDT
Civil Twilight 6:41 AM CDT 6:46 PM CDT
Nautical Twilight 6:10 AM CDT 7:18 PM CDT
Astronomical Twilight 5:38 AM CDT 7:50 PM CDT
Moon 6:08 AM CDT (10/14) 5:39 PM CDT (10/14)
Length of Visible Light 12h 04m
Length of Day
11h 09m
Waning Crescent, 1% of the Moon is Illuminated
Oct 14
Waning Crescent
Oct 15
New
Oct 21
First Quarter
Oct 29
Full
Nov 6
Last Quarter

Hourly Weather History & Observations

Time (CDT) Temp. Dew Point Humidity Pressure Visibility Wind Dir Wind Speed Gust Speed Precip Events Conditions
12:54 AM 66.0 °F 64.0 °F 93% 29.72 in 3.0 mi South 16.1 mph 26.5 mph 0.05 in Rain Rain
1:13 AM 66.2 °F 64.4 °F 94% 29.74 in 2.0 mi South 16.1 mph - 0.11 in Rain Heavy Rain
1:25 AM 64.4 °F 64.4 °F 100% 29.73 in 1.8 mi South 12.7 mph - 0.23 in Rain Heavy Rain
1:32 AM 64.4 °F 64.4 °F 100% 29.73 in 2.0 mi South 11.5 mph - 0.28 in Rain Heavy Rain
1:52 AM 64.4 °F 64.4 °F 100% 29.72 in 3.0 mi South 10.4 mph - 0.39 in Rain Rain
1:54 AM 64.9 °F 64.0 °F 97% 29.71 in 3.0 mi South 9.2 mph - 0.40 in Rain Rain
2:20 AM 64.4 °F 64.4 °F 100% 29.69 in 2.0 mi South 12.7 mph - 0.08 in Rain Heavy Rain
2:38 AM 64.4 °F 62.6 °F 94% 29.68 in 3.0 mi South 13.8 mph 19.6 mph 0.12 in Rain Light Rain
2:54 AM 64.9 °F 63.0 °F 93% 29.67 in 4.0 mi South 16.1 mph 23.0 mph 0.13 in Rain Light Rain
3:23 AM 64.4 °F 62.6 °F 94% 29.65 in 3.0 mi South 11.5 mph - 0.06 in Rain Light Rain
3:36 AM 64.4 °F 62.6 °F 94% 29.65 in 3.0 mi South 11.5 mph - 0.08 in Rain Light Rain
3:51 AM 64.4 °F 62.6 °F 94% 29.64 in 2.5 mi South 15.0 mph - 0.13 in Rain Light Rain
3:54 AM 64.0 °F 63.0 °F 96% 29.63 in 3.0 mi South 13.8 mph - 0.13 in Rain Light Rain
4:54 AM 64.0 °F 62.1 °F 93% 29.61 in 8.0 mi SW 18.4 mph 24.2 mph 0.00 in Rain Light Rain
5:38 AM 62.6 °F 60.8 °F 94% 29.59 in 10.0 mi South 12.7 mph - 0.01 in Rain Light Rain
5:54 AM 62.1 °F 60.1 °F 93% 29.55 in 10.0 mi SE 6.9 mph - 0.01 in   Mostly Cloudy
6:33 AM 62.6 °F 60.8 °F 94% 29.61 in 10.0 mi SW 12.7 mph - 0.00 in   Mostly Cloudy
6:54 AM 63.0 °F 60.1 °F 90% 29.60 in 10.0 mi SSW 16.1 mph - 0.00 in   Overcast
7:09 AM 62.6 °F 60.8 °F 94% 29.61 in 10.0 mi SSW 13.8 mph 20.7 mph N/A   Overcast
7:54 AM 63.0 °F 60.1 °F 90% 29.59 in 10.0 mi SSW 13.8 mph 24.2 mph N/A   Overcast
8:06 AM 62.6 °F 60.8 °F 94% 29.60 in 10.0 mi SSW 13.8 mph - N/A   Overcast
8:54 AM 63.0 °F 60.1 °F 90% 29.57 in 10.0 mi South 19.6 mph 27.6 mph N/A   Overcast
9:39 AM 62.6 °F 60.8 °F 94% 29.57 in 10.0 mi SSW 21.9 mph 31.1 mph 0.01 in   Overcast
9:54 AM 63.0 °F 60.1 °F 90% 29.57 in 10.0 mi SSW 28.8 mph 39.1 mph 0.01 in   Overcast
10:25 AM 66.2 °F 60.8 °F 83% 29.56 in 10.0 mi SSW 20.7 mph 28.8 mph N/A   Mostly Cloudy
10:37 AM 66.2 °F 60.8 °F 83% 29.56 in 10.0 mi SSW 23.0 mph 34.5 mph N/A   Scattered Clouds
10:47 AM 66.2 °F 60.8 °F 83% 29.56 in 10.0 mi SSW 18.4 mph 32.2 mph N/A   Mostly Cloudy
10:54 AM 66.9 °F 61.0 °F 81% 29.55 in 10.0 mi SW 24.2 mph 32.2 mph N/A   Mostly Cloudy
11:54 AM 68.0 °F 60.1 °F 76% 29.54 in 10.0 mi SW 26.5 mph 34.5 mph N/A   Overcast
12:17 PM 68.0 °F 60.8 °F 78% 29.53 in 10.0 mi SSW 20.7 mph 29.9 mph 0.00 in Rain Light Rain
12:27 PM 66.2 °F 60.8 °F 83% 29.53 in 7.0 mi SW 21.9 mph 31.1 mph 0.00 in Rain , Thunderstorm Light Thunderstorms and Rain
12:54 PM 71.1 °F 61.0 °F 70% 29.51 in 10.0 mi SW 23.0 mph 33.4 mph 0.01 in   Mostly Cloudy
1:27 PM 64.4 °F 60.8 °F 88% 29.52 in 2.5 mi SW 19.6 mph 33.4 mph 0.04 in Rain Light Rain
1:35 PM 64.4 °F 60.8 °F 88% 29.52 in 10.0 mi SW 20.7 mph 29.9 mph 0.04 in Rain Light Rain
1:49 PM 62.6 °F 59.0 °F 88% 29.54 in 3.0 mi West 16.1 mph 27.6 mph 0.06 in Rain Light Rain
1:54 PM 64.0 °F 59.0 °F 84% 29.53 in 10.0 mi West 18.4 mph 25.3 mph 0.06 in Rain Light Rain
2:02 PM 64.4 °F 57.2 °F 77% 29.54 in 10.0 mi West 19.6 mph 31.1 mph 0.01 in   Overcast
2:54 PM 59.0 °F 51.8 °F 77% 29.59 in 10.0 mi West 26.5 mph 35.7 mph N/A   Overcast
3:54 PM 57.0 °F 51.1 °F 81% 29.65 in 10.0 mi West 23.0 mph 32.2 mph N/A   Overcast
4:54 PM 54.0 °F 48.9 °F 83% 29.71 in 10.0 mi West 20.7 mph 35.7 mph N/A   Overcast
5:54 PM 54.0 °F 48.9 °F 83% 29.76 in 10.0 mi WNW 17.3 mph 26.5 mph N/A   Overcast
6:54 PM 53.1 °F 46.9 °F 80% 29.79 in 10.0 mi WNW 12.7 mph 25.3 mph N/A   Overcast
7:16 PM 53.6 °F 46.4 °F 77% 29.80 in 10.0 mi WNW 12.7 mph 26.5 mph N/A   Overcast
7:54 PM 53.1 °F 46.0 °F 77% 29.82 in 10.0 mi WNW 12.7 mph 19.6 mph N/A   Overcast
8:54 PM 51.1 °F 45.0 °F 80% 29.83 in 10.0 mi WNW 11.5 mph - N/A   Clear
9:54 PM 50.0 °F 45.0 °F 83% 29.85 in 10.0 mi NW 9.2 mph 16.1 mph N/A   Partly Cloudy
10:54 PM 48.9 °F 43.0 °F 80% 29.87 in 10.0 mi NW 6.9 mph - N/A   Clear
11:54 PM 48.2 °F 42.8 °F 82% 29.89 in 10.0 mi WNW 4.6 mph - N/A   Clear